www.pogodaiklimat.ru

Погода и климат >> Архив погоды >> Гана >> Ва


ПОГОДА в Ва

  • Прогноз погоды в Ва
  • Монитор погоды в Ва

АРХИВ ПОГОДЫ в Ва

Время (UTC), дата Ветер
(напр.,м/с)
 
Видим.   Явления Облачность Т
(С)
Тd
(С)
f
(%)
Тe
(С)
Тes
(С)
Комфортность P
(гПа)
Po
(гПа)
Тmin
(С)
Tmax
(С)
R
(мм)
R24
(мм)
S
(см)
21 17.05 ЮВ 1 12 км зарница 5/3 360 м
[Cb cap Ci sp]
+32.5 +22.8 57 +43 +43 опасность
перегрева
1010.4 974.6
00 18.05 Ю 3 12 км зарница 9/5 360 м
[Cb cap Ac trans]
+30.0 +22.4 64 +39 +39 очень
душно
1011.2 975.0
03 18.05 ЮЗ 3 12 км 9/3 360 м
[Sc Ac trans]
+25.5 +20.5 74 +32 +32 очень
душно
1009.9 973.3
06 18.05 СЗ 1 12 км 6/0
[Ac trans]
+25.2 +21.2 79 +32 +32 очень
душно
1010.9 974.2 +24.5
09 18.05 ЮЗ 1 12 км 9/3 360 м
[Sc Ac trans]
+28.0 +21.7 69 +36 +40 очень
душно
1011.8 975.4
12 18.05 ЮЗ 2 12 км 9/0
[Ac trans Cs]
+33.5 +22.5 53 +43 +58 опасность
перегрева
1010.8 975.1
18 18.05 Ю 1 12 км 9/6 480 м
[Cu med, cong Cs]
+34.5 +22.9 51 +44 +45 опасность
перегрева
1007.8 972.3 +35.5
21 18.05 ЮЗ 2 12 км зарница 9/6 400 м
[Cb cap Ac trans]
+31.5 +21.8 56 +40 +40 очень
душно
1010.9 974.9
00 19.05 ЮЗ 2 12 км 9/0
[Ac trans Cs]
+29.0 +23.5 72 +39 +39 очень
душно
1011.8 975.5
03 19.05 ЮЗ 2 12 км 8/0
[Ac trans Ci sp]
+28.0 +23.9 78 +39 +39 очень
душно
1010.6 974.2
06 19.05 ЮЗ 2 12 км 9/4 360 м
[Sc Ac trans]
+28.0 +23.9 78 +39 +39 очень
душно
1010.3 973.9 +27.0
09 19.05 ЮЗ 2 12 км 8/0
[Ac trans Cs]
+31.0 +23.5 64 +42 +50 опасность
перегрева
1011.5 975.4
12 19.05 ЮЗ 3 12 км 6/5 480 м
[Cu med, cong Ci sp]
+34.5 +24.0 54 +46 +55 опасность
перегрева
1010.3 974.7
15 19.05 ЮЗ 2 12 км 8/8 400 м
[Cu Sc]
+35.7 +23.7 50 +47 +49 опасность
перегрева
1008.2 972.8
18 19.05 ЮЗ 2 12 км 8/3 480 м
[Cb cap Cs]
+34.0 +23.1 53 +44 +44 опасность
перегрева
1007.8 972.2 +35.7
21 19.05 ЮЗ 2 12 км зарница 9/6 360 м
[Cb cap Ac trans Cs]
+31.5 +23.3 62 +42 +42 опасность
перегрева
1010.5 974.5
00 20.05 ЮЗ 1 12 км 9/0
[Cs]
+29.5 +23.3 69 +40 +40 очень
душно
1012.4 976.1
03 20.05 штиль 0 12 км 9/0
[Cs]
+27.5 +23.4 78 +37 +37 очень
душно
1011.6 975.1
06 20.05 З 1 12 км 9/5 360 м
[Sc Ac trans]
+26.5 +23.0 81 +35 +35 очень
душно
1012.9 976.3 +26.0
21 20.05 штиль 0 12 км зарница 8/6 360 м
[Cb cap Ac trans]
+32.7 +23.9 60 +44 +44 опасность
перегрева
1011.0 975.2
00 21.05 ЮЗ 3 12 км гроза без осадков 9/6 360 м
[Cb cap Ac trans]
+29.1 +23.5 72 +40 +40 очень
душно
1011.8 975.5
03 21.05 ЮЗ 2 12 км 9/5 360 м
[Sc Ac trans]
+28.0 +22.4 72 +37 +37 очень
душно
1011.0 974.6
09 21.05 ЮЗ 3 12 км 9/0
[Ac trans]
+29.0 +23.8 74 +40 +44 очень
душно
1012.4 976.1
12 21.05 ЮЗ 2 12 км 9/0
[Ac trans]
+31.3 +24.1 66 +43 +54 опасность
перегрева
1011.7 975.7
15 21.05 ЮЗ 2 12 км 9/5 420 м
[Cb cap Ac trans]
+34.2 +23.8 55 +46 +49 опасность
перегрева
1008.9 973.3
18 21.05 ЮЗ 1 12 км в посл. час гроза 9/6 360 м
[Cb cap Ci sp]
+29.7 +21.3 61 +38 +38 очень
душно
1007.6 971.5 +34.5
21 21.05 Ю 2 12 км 9/0
[Ac trans]
+28.0 +23.2 75 +38 +38 очень
душно
1010.9 974.5
00 22.05 ЮЗ 3 12 км зарница 9/8 360 м
[Cb cap Ac trans]
+27.5 +24.1 82 +38 +38 очень
душно
1013.8 977.3
03 22.05 ЮЗ 3 12 км в посл. час гроза {дождь} 9/6 360 м
[Sc Ac trans]
+24.0 +21.2 84 +30 +30 очень
душно
1010.2 973.4
06 22.05 штиль 0 12 км {гроза, дождь} 9/0
[Cs]
+25.0 +22.2 84 +32 +32 очень
душно
1011.5 974.7 +23.5 0.0
09 22.05 ЮЗ 2 12 км 9/3 360 м
[Sc Ac trans]
+27.0 +22.1 75 +35 +39 очень
душно
1010.7 974.2
12 22.05 ЮВ 1 12 км 9/0
[Cs]
+32.5 +22.1 54 +41 +62 опасность
перегрева
1012.0 976.1
15 22.05 ЮЗ 2 12 км 9/3 480 м
[Cu med, cong Cs]
+34.0 +21.5 48 +42 +49 опасность
перегрева
1009.0 973.4
21 22.05 штиль 0 12 км зарница {гроза} 8/5 360 м
[Cb cap Cs]
+28.5 +22.5 70 +37 +37 очень
душно
1010.6 974.3
00 23.05 ЮЗ 1 12 км зарница {гроза} 8/3 360 м
[Cb cap Cs]
+29.0 +22.0 66 +37 +37 очень
душно
1011.5 975.2
06 23.05 штиль 0 12 км 9/0
[Ac trans Cs]
+27.0 +22.8 78 +36 +36 очень
душно
1011.5 975.0 +26.4
09 23.05 ЮЗ 1 12 км 9/0
[Cs]
+31.0 +24.2 67 +43 +53 опасность
перегрева
1011.5 975.4
15 23.05 ЮВ 2 12 км 9/6 480 м
[Cu med, cong Cs]
+37.0 +21.1 40 +44 +49 опасность
перегрева
1004.7 969.6
18 23.05 ЮВ 2 12 км зарница 8/6 400 м
[Cb cap Ci sp]
+29.5 +24.1 73 +41 +41 опасность
перегрева
1007.8 971.7 +30.7
21 23.05 ЮЗ 2 12 км 9/4 360 м
[Sc Ac trans]
+30.5 +23.2 65 +41 +41 опасность
перегрева
1010.8 974.7
00 24.05 ЮЗ 2 12 км 8/0
[Cs]
+28.0 +22.4 72 +37 +37 очень
душно
1011.4 975.0
03 24.05 штиль 0 12 км 3/0
[Ci sp]
+26.5 +20.8 71 +33 +33 очень
душно
1010.3 973.8
06 24.05 ЮЗ 2 12 км 6/3 360 м
[Sc Ac trans Ci sp]
+26.0 +21.8 78 +33 +33 очень
душно
1011.5 974.9 +25.5
09 24.05 СВ 1 12 км 9/4 360 м
[Cu Sc Ac trans]
+29.0 +23.5 72 +39 +43 очень
душно
1013.6 977.2
15 24.05 ЮЗ 2 12 км 8/8 400 м
[Cu Sc]
+34.5 +22.9 51 +44 +47 опасность
перегрева
1008.8 973.2
18 24.05 СЗ 1 12 км 9/6 400 м
[Cb cap Ac trans Cs]
+33.5 +24.1 58 +45 +46 опасность
перегрева
1007.7 972.1 +34.5

 

Местоположение метеостанции Ва (Гана): широта 10.05 долгота -2.50 высота над уровнем моря 323 м.

В архиве по умолчанию представлена погода в Ва за последнюю неделю. Архивные данные за месяц целиком и за предыдущие месяцы, начиная с января 2011 года, Вы можете получить, выбрав интересующий диапазон дат из раскрывающегося списка и нажав кнопку "Ввод!".


*Определитесь, кто Вы:
робот инопланетянин человек

Внимание! Время в таблицах - всемирное. Для получения местного времени необходимо прибавить поправку, которая равна 1 ч.

Смотрите также архив погоды в соседних городах и на ближайших метеорологических станциях:

Погода в Гауа (Буркина-Фасо) (81 км)
Погода в Боле (Гана) (113 км)
Погода в Навронго (Гана) (180 км)
Погода в Тамале (Гана) (191 км)
Погода в По (Буркина-Фасо) (192 км)
Погода в Боромо (Буркина-Фасо) (195 км)
Погода в Бондуку (Кот-д'Ивуар) (225 км)
Погода в Бобо-Диуласо (Буркина-Фасо) (235 км)
Погода в Уэнчи (Гана) (260 км)
Погода в Уагадугу (Буркина-Фасо) (277 км)

Пояснения к столбцам:

Ветер - указаны скорость ветра в м/с - средняя за 10 мин, порывы в срок и между сроками (в фигурных скобках) и направление, откуда дует ветер: С - северный, СВ - северо-восточный, В - восточный, ЮВ - юго-восточный, Ю - южный, ЮЗ - юго-западный, З - западный, СЗ - северо-западный.
Видимость - горизонтальная дальность видимости в метрах или километрах. При видимости от 1 до 10 км при отсутствии осадков обычно наблюдается дымка, при ухудшении видимости до 1 км и менее - туман. В сухую погоду видимость может ухудшаться дымом, пылью или мглою.
Явления - указаны атмосферные явления, наблюдавшиеся в срок или в последний час перед сроком; фигурными скобками обозначены явления, наблюдавшиеся между сроками (за 1-3 часа до срока); квадратными скобками обозначены град или гололедные отложения с указанием их диаметра в мм.
Облачность - указаны через наклонную черту общая и нижняя облачность в баллах и высота нижней границы облаков в метрах; квадратными скобками обозначены формы облаков: Ci - перистые, Cs - перисто-слоистые, Cc - перисто-кучевые, Ac - высококучевые, As - высокослоистые, Sc - слоисто-кучевые, Ns - слоисто-дождевые, Cu - кучевые, Cb - кучево-дождевые. Подробнее классификацию облаков см. в Атласе облаков (PDF).
T - Температура воздуха - температура, измеренная на высоте 2 м над землей.
Td - Температура точки росы - температура, при понижении до которой содержащийся в воздухе водяной пар достигнет насыщения.
f - Относительная влажность воздуха - влажноcть воздуха, измеренная на высоте 2 м над землей.
Te - Эффективная температура - температура, которую ощущает одетый по сезону человек в тени. Характеристика душности погоды. При расчете учитывается влияние влажности воздуха и скорости ветра на теплоощущения человека.
Tes - Эффективная температура на солнце - температура, которую ощущает человек, с поправкой на солнечный нагрев. Характеристика знойности погоды. Зависит от высоты солнца над горизонтом, облачности и скорости ветра. Ночью, в пасмурную погоду, а также при ветре 12 м/с и более поправка равна нулю.
P - Атмосферное давление - приведенное к уровню моря атмосферное давление.
Po - Атмосферное давление - измеренное на уровне метеостанции атмосферное давление.
Tmin - Минимальная температура - минимум температуры воздуха на высоте 2 м над землей.
Tmax - Максимальная температура - максимум температуры воздуха на высоте 2 м над землей.
R - Количество осадков - Количество выпавших осадков за период времени, мм. При наведении курсора мыши на число - период времени, за который выпало указанное количество осадков.
R24 - Количество осадков - Количество выпавших осадков за 24 часа, мм.
S - Снежный покров - Высота снежного покрова, см. При наведении курсора мыши на число - состояние снежного покрова и степень покрытия местности в баллах.